| time (UTC) | temp C | wind direction | speed KPH | gust KPH | rain 1hr cm | rain 24hr cm | rain mn cm | humidity % | barometer mb |
| 20260507170002 | 17 | 300 | 0.0 | 0.0 | 0.00 | 0.05 | 0.00 | 42 | 997.6 |
| 20260507164559 | 17 | 158 | 0.0 | 0.0 | 0.00 | 0.05 | 0.00 | 39 | 997.9 |
| 20260507163117 | 17 | 114 | 0.0 | 0.0 | 0.00 | 0.05 | 0.00 | 43 | 998.1 |
| 20260507161556 | 17 | 122 | 0.0 | 0.0 | 0.00 | 0.05 | 0.00 | 42 | 998.3 |
| 20260507160056 | 17 | 158 | 0.0 | 0.0 | 0.00 | 0.05 | 0.00 | 40 | 998.4 |
| 20260507154552 | 17 | 25 | 0.0 | 0.0 | 0.00 | 0.05 | 0.00 | 42 | 998.5 |
| 20260507153049 | 16 | 139 | 0.0 | 0.0 | 0.00 | 0.05 | 0.00 | 46 | 998.5 |
| 20260507151548 | 16 | 338 | 0.0 | 0.0 | 0.00 | 0.05 | 0.00 | 49 | 998.8 |
| 20260507150046 | 16 | 265 | 0.0 | 0.0 | 0.00 | 0.05 | 0.00 | 43 | 999.3 |
| 20260507144610 | 15 | 19 | 0.0 | 0.0 | 0.00 | 0.10 | 0.00 | 52 | 999.5 |
| 20260507143048 | 16 | 279 | 0.0 | 0.0 | 0.00 | 0.10 | 0.00 | 47 | 999.6 |
| 20260507141548 | 15 | 204 | 0.0 | 0.0 | 0.00 | 0.10 | 0.00 | 53 | 999.7 |
| 20260507140041 | 14 | 264 | 0.0 | 4.8 | 0.00 | 0.10 | 0.00 | 50 | 999.8 |
| 20260507134544 | 15 | 277 | 0.0 | 0.0 | 0.00 | 0.15 | 0.00 | 51 | 1000.1 |
| 20260507133038 | 15 | 198 | 0.0 | 0.0 | 0.00 | 0.15 | 0.00 | 53 | 1000.2 |
| 20260507131535 | 13 | 2 | 0.0 | 0.0 | 0.00 | 0.15 | 0.00 | 61 | 1000.1 |
| 20260507130034 | 12 | 162 | 0.0 | 0.0 | 0.00 | 0.15 | 0.00 | 60 | 1000.3 |
| 20260507124532 | 12 | 277 | 0.0 | 0.0 | 0.00 | 0.23 | 0.00 | 60 | 1000.4 |
| 20260507123030 | 12 | 295 | 0.0 | 0.0 | 0.00 | 0.23 | 0.00 | 63 | 1000.3 |
| 20260507121530 | 11 | 281 | 0.0 | 0.0 | 0.00 | 0.23 | 0.00 | 62 | 1000.1 |
| 20260507120029 | 11 | 308 | 0.0 | 0.0 | 0.00 | 0.23 | 0.00 | 64 | 1000.1 |
| 20260507114528 | 11 | 274 | 0.0 | 0.0 | 0.00 | 0.30 | 0.00 | 63 | 1000.1 |
| 20260507113028 | 11 | 274 | 0.0 | 0.0 | 0.00 | 0.30 | 0.00 | 64 | 1000.0 |
| 20260507111538 | 11 | 274 | 0.0 | 0.0 | 0.00 | 0.30 | 0.00 | 65 | 1000.1 |
| 20260507110025 | 10 | 274 | 0.0 | 0.0 | 0.00 | 0.30 | 0.00 | 64 | 999.8 |
| 20260507104523 | 10 | 174 | 0.0 | 0.0 | 0.00 | 0.30 | 0.00 | 64 | 999.6 |
| 20260507103021 | 10 | 261 | 0.0 | 0.0 | 0.00 | 0.30 | 0.00 | 65 | 999.3 |
| 20260507101521 | 11 | 261 | 0.0 | 0.0 | 0.00 | 0.30 | 0.00 | 65 | 999.4 |
| 20260507100020 | 11 | 293 | 0.0 | 0.0 | 0.00 | 0.30 | 0.00 | 64 | 999.0 |
| 20260507094517 | 11 | 132 | 0.0 | 0.0 | 0.00 | 0.30 | 0.00 | 66 | 998.8 |
| 20260507093021 | 11 | 219 | 0.0 | 0.0 | 0.00 | 0.30 | 0.00 | 68 | 998.8 |
| 20260507091525 | 11 | 219 | 0.0 | 0.0 | 0.00 | 0.30 | 0.00 | 66 | 998.9 |
| 20260507090017 | 11 | 214 | 0.0 | 0.0 | 0.00 | 0.30 | 0.00 | 67 | 999.0 |
| 20260507084517 | 11 | 59 | 0.0 | 0.0 | 0.00 | 0.30 | 0.00 | 69 | 998.9 |
| 20260507083009 | 11 | 109 | 0.0 | 0.0 | 0.00 | 0.30 | 0.00 | 74 | 998.8 |
| 20260507081518 | 11 | 131 | 0.0 | 0.0 | 0.00 | 0.30 | 0.00 | 75 | 998.7 |
| 20260507080007 | 12 | 124 | 0.0 | 0.0 | 0.00 | 0.30 | 0.00 | 74 | 998.4 |
| 20260507074506 | 12 | 197 | 0.0 | 0.0 | 0.00 | 0.30 | 0.00 | 75 | 998.0 |
| 20260507073007 | 12 | 5 | 0.0 | 1.6 | 0.00 | 0.30 | 0.00 | 77 | 998.0 |
| 20260507071503 | 12 | 141 | 0.0 | 0.0 | 0.00 | 0.30 | 0.00 | 79 | 998.0 |
| 20260507070004 | 12 | 141 | 0.0 | 0.0 | 0.00 | 0.30 | 0.00 | 80 | 998.4 |
| 20260507064602 | 12 | 141 | 0.0 | 0.0 | 0.00 | 0.30 | 0.00 | 80 | 998.6 |
| 20260507064505 | 12 | 141 | 0.0 | 0.0 | 0.00 | 0.30 | 0.00 | 80 | 998.5 |
| 20260507063058 | 12 | 141 | 0.0 | 0.0 | 0.00 | 0.30 | 0.00 | 80 | 998.4 |
| 20260507061604 | 12 | 141 | 0.0 | 0.0 | 0.00 | 0.30 | 0.00 | 77 | 998.6 |
| 20260507060104 | 12 | 141 | 0.0 | 0.0 | 0.00 | 0.30 | 0.00 | 77 | 998.9 |
| 20260507054602 | 12 | 141 | 0.0 | 0.0 | 0.00 | 0.30 | 0.00 | 78 | 998.6 |
| 20260507053056 | 12 | 290 | 0.0 | 0.0 | 0.00 | 0.30 | 0.00 | 80 | 998.4 |
| 20260507051551 | 12 | 290 | 0.0 | 0.0 | 0.00 | 0.30 | 0.00 | 81 | 998.4 |
| 20260507050050 | 12 | 290 | 0.0 | 0.0 | 0.00 | 0.30 | 0.00 | 81 | 998.3 |
| 20260507044558 | 13 | 291 | 0.0 | 0.0 | 0.00 | 0.30 | 0.00 | 81 | 998.3 |
| 20260507043047 | 13 | 154 | 0.0 | 0.0 | 0.00 | 0.30 | 0.00 | 81 | 998.0 |
| 20260507041545 | 13 | 141 | 0.0 | 0.0 | 0.00 | 0.30 | 0.00 | 82 | 998.2 |
| 20260507040042 | 13 | 224 | 0.0 | 0.0 | 0.00 | 0.30 | 0.00 | 82 | 998.7 |
| 20260507034542 | 13 | 224 | 0.0 | 0.0 | 0.00 | 0.30 | 0.30 | 81 | 998.1 |
| 20260507033038 | 13 | 130 | 0.0 | 0.0 | 0.00 | 0.30 | 0.30 | 81 | 998.0 |
| 20260507031538 | 13 | 266 | 0.0 | 0.0 | 0.00 | 0.30 | 0.30 | 81 | 998.1 |
| 20260507030035 | 13 | 268 | 0.0 | 0.0 | 0.00 | 0.30 | 0.30 | 81 | 998.3 |
| 20260507024535 | 13 | 233 | 0.0 | 0.0 | 0.00 | 0.30 | 0.30 | 79 | 998.0 |
| 20260507023029 | 14 | 286 | 0.0 | 0.0 | 0.00 | 0.30 | 0.30 | 78 | 997.8 |
| 20260507021530 | 14 | 296 | 0.0 | 0.0 | 0.00 | 0.30 | 0.30 | 78 | 997.7 |
| 20260507020035 | 15 | 262 | 0.0 | 0.0 | 0.00 | 0.30 | 0.30 | 78 | 997.7 |
| 20260507014524 | 15 | 131 | 0.0 | 0.0 | 0.00 | 0.30 | 0.30 | 77 | 997.6 |
| 20260507013022 | 15 | 221 | 0.0 | 0.0 | 0.00 | 0.30 | 0.30 | 77 | 997.6 |
| 20260507011521 | 15 | 212 | 0.0 | 0.0 | 0.00 | 0.30 | 0.30 | 78 | 997.2 |
| 20260507010025 | 15 | 302 | 0.0 | 0.0 | 0.00 | 0.30 | 0.30 | 78 | 997.2 |
| 20260507004516 | 16 | 9 | 0.0 | 0.0 | 0.00 | 0.30 | 0.30 | 78 | 997.7 |
| 20260507003021 | 16 | 221 | 0.0 | 0.0 | 0.00 | 0.30 | 0.30 | 78 | 997.4 |
| 20260507001521 | 16 | 252 | 0.0 | 0.0 | 0.00 | 0.30 | 0.30 | 82 | 997.1 |
| 20260507000013 | 16 | 178 | 0.0 | 0.0 | 0.00 | 0.30 | 0.30 | 83 | 996.9 |
| 20260506234510 | 17 | 249 | 0.0 | 0.0 | 0.00 | 0.30 | 0.30 | 83 | 996.8 |
| 20260506233009 | 17 | 344 | 0.0 | 0.0 | 0.00 | 0.30 | 0.30 | 83 | 995.9 |
| 20260506231512 | 17 | 285 | 0.0 | 0.0 | 0.00 | 0.30 | 0.30 | 85 | 995.8 |
| 20260506230006 | 17 | 303 | 0.0 | 0.0 | 0.00 | 0.30 | 0.30 | 84 | 995.7 |
| 20260506224504 | 18 | 281 | 0.0 | 0.0 | 0.00 | 0.30 | 0.30 | 83 | 995.7 |
| 20260506223005 | 18 | 288 | 0.0 | 0.0 | 0.00 | 0.30 | 0.30 | 83 | 995.6 |
| 20260506221505 | 19 | 195 | 0.0 | 0.0 | 0.00 | 0.30 | 0.30 | 84 | 995.2 |
| 20260506220004 | 19 | 281 | 0.0 | 0.0 | 0.00 | 0.30 | 0.30 | 83 | 995.3 |
| 20260506214505 | 19 | 9 | 0.0 | 0.0 | 0.00 | 0.30 | 0.30 | 86 | 994.9 |
| 20260506213005 | 19 | 8 | 0.0 | 3.2 | 0.00 | 0.30 | 0.30 | 86 | 995.0 |
| 20260506211502 | 19 | 308 | 0.0 | 0.0 | 0.00 | 0.30 | 0.30 | 87 | 994.8 |
| 20260506210001 | 19 | 197 | 0.0 | 0.0 | 0.00 | 0.30 | 0.30 | 86 | 994.2 |
| 20260506204501 | 19 | 106 | 0.0 | 0.0 | 0.00 | 0.30 | 0.30 | 86 | 994.2 |
| 20260506203100 | 18 | 167 | 0.0 | 0.0 | 0.00 | 0.30 | 0.30 | 87 | 994.1 |
| 20260506201600 | 18 | 167 | 0.0 | 0.0 | 0.00 | 0.30 | 0.30 | 89 | 994.1 |
| 20260506200100 | 18 | 116 | 0.0 | 0.0 | 0.00 | 0.30 | 0.30 | 89 | 994.0 |
| 20260506194606 | 18 | 111 | 0.0 | 0.0 | 0.00 | 0.30 | 0.30 | 89 | 994.3 |
| 20260506193100 | 18 | 124 | 0.0 | 0.0 | 0.00 | 0.30 | 0.30 | 88 | 994.3 |
| 20260506191558 | 18 | 115 | 0.0 | 0.0 | 0.03 | 0.30 | 0.30 | 87 | 994.4 |
| 20260506190059 | 19 | 117 | 0.0 | 0.0 | 0.03 | 0.30 | 0.30 | 88 | 994.4 |
| 20260506184557 | 19 | 139 | 0.0 | 0.0 | 0.03 | 0.30 | 0.30 | 85 | 994.5 |
| 20260506183105 | 19 | 140 | 0.0 | 0.0 | 0.03 | 0.28 | 0.28 | 85 | 994.6 |
| 20260506181559 | 18 | 120 | 0.0 | 0.0 | 0.03 | 0.28 | 0.28 | 86 | 994.8 |
| 20260506180056 | 18 | 269 | 0.0 | 0.0 | 0.03 | 0.28 | 0.28 | 85 | 994.8 |
| 20260506174555 | 19 | 172 | 0.0 | 0.0 | 0.03 | 0.28 | 0.28 | 83 | 994.6 |
| 20260506173054 | 20 | 200 | 0.0 | 0.0 | 0.00 | 0.25 | 0.25 | 78 | 994.7 |
| 20260506171558 | 20 | 124 | 0.0 | 0.0 | 0.00 | 0.25 | 0.25 | 76 | 994.4 |